When you browse on this site, cookies collect data to enhance your experience and personalize the content and advertising you see.
Visit our Privacy Policy to learn more. By continuing to use the site, you agree to this use of cookies and data.
  • In Switzerland
  • List of Countries
  • For 7 days
  • Water Temperature
  • Weather Map
  • Weather Widgets
  • user-avatar
    Login

    Hourly Weather Onvervaht

    Today, 11 December, Wednesday

    Time Temperature Precipitation Wind Pressure Humidity
    00:00 +23°C° 0 mm 0 mps 756 mmHg 97%
    01:00 +22°C° 0 mm 0 mps 756 mmHg 98%
    02:00 +22°C° 0 mm 0 mps 756 mmHg 98%
    03:00 +22°C° 0 mm 0 mps 756 mmHg 98%
    04:00 +22°C° 0 mm 0 mps 756 mmHg 98%
    05:00 +22°C° 0 mm 0 mps 756 mmHg 98%
    06:00 +25°C° 0.1 mm 1 mps 756 mmHg 94%
    07:00 +27°C° 0.1 mm 1 mps 757 mmHg 89%
    08:00 +28°C° 0.1 mm 1 mps 757 mmHg 85%
    09:00 +29°C° 0.8 mm 1 mps 757 mmHg 85%
    10:00 +29°C° 0.8 mm 1 mps 757 mmHg 85%
    11:00 +30°C° 0.8 mm 1 mps 757 mmHg 84%
    12:00 +29°C° 1.7 mm 2 mps 756 mmHg 86%
    13:00 +29°C° 1.7 mm 2 mps 755 mmHg 87%
    14:00 +29°C° 1.7 mm 2 mps 755 mmHg 89%
    15:00 +28°C° 0.7 mm 2 mps 755 mmHg 90%
    16:00 +28°C° 0.7 mm 1 mps 755 mmHg 90%
    17:00 +27°C° 0.7 mm 1 mps 755 mmHg 91%
    18:00 +27°C° 0.1 mm 1 mps 755 mmHg 92%
    19:00 +26°C° 0.1 mm 1 mps 755 mmHg 94%
    20:00 +25°C° 0.1 mm 1 mps 756 mmHg 96%
    21:00 +25°C° 0 mm 1 mps 756 mmHg 97%
    22:00 +25°C° 0 mm 1 mps 756 mmHg 97%
    23:00 +24°C° 0 mm 1 mps 756 mmHg 98%

    Tomorrow, 12 December, Thursday

    Time Temperature Precipitation Wind Pressure Humidity
    00:00 +24°C° 0 mm 1 mps 755 mmHg 98%
    01:00 +24°C° 0 mm 1 mps 755 mmHg 99%
    02:00 +24°C° 0 mm 1 mps 754 mmHg 99%
    03:00 +24°C° 0 mm 1 mps 754 mmHg 99%
    04:00 +22°C° 0 mm 0 mps 755 mmHg 99%
    05:00 +22°C° 0 mm 0 mps 755 mmHg 99%
    06:00 +25°C° 0 mm 1 mps 755 mmHg 94%
    07:00 +26°C° 0 mm 1 mps 756 mmHg 89%
    08:00 +28°C° 0 mm 2 mps 756 mmHg 84%
    09:00 +29°C° 0.5 mm 2 mps 756 mmHg 82%
    10:00 +29°C° 0.5 mm 2 mps 756 mmHg 80%
    11:00 +30°C° 0.5 mm 2 mps 756 mmHg 77%
    12:00 +30°C° 1.3 mm 2 mps 755 mmHg 81%
    13:00 +29°C° 1.3 mm 2 mps 755 mmHg 84%
    14:00 +29°C° 1.3 mm 1 mps 754 mmHg 88%
    15:00 +28°C° 0.8 mm 1 mps 754 mmHg 91%
    16:00 +28°C° 0.8 mm 1 mps 754 mmHg 93%
    17:00 +27°C° 0.8 mm 1 mps 753 mmHg 96%
    18:00 +26°C° 0 mm 1 mps 754 mmHg 97%
    19:00 +26°C° 0 mm 1 mps 755 mmHg 97%
    20:00 +25°C° 0 mm 1 mps 755 mmHg 98%
    21:00 +25°C° 0 mm 1 mps 755 mmHg 98%
    22:00 +25°C° 0 mm 1 mps 755 mmHg 98%
    23:00 +25°C° 0 mm 1 mps 755 mmHg 98%

    Day after tomorrow, 13 December, Friday

    Time Temperature Precipitation Wind Pressure Humidity
    00:00 +25°C° 0 mm 1 mps 755 mmHg 99%
    01:00 +25°C° 0 mm 1 mps 755 mmHg 99%
    02:00 +23°C° 0 mm 0 mps 754 mmHg 99%
    03:00 +22°C° 0 mm 0 mps 754 mmHg 99%
    04:00 +22°C° 0 mm 0 mps 754 mmHg 99%
    05:00 +22°C° 0 mm 0 mps 755 mmHg 99%
    06:00 +25°C° 0 mm 1 mps 755 mmHg 96%
    07:00 +26°C° 0 mm 1 mps 755 mmHg 92%
    08:00 +27°C° 0 mm 1 mps 756 mmHg 89%
    09:00 +29°C° 0 mm 2 mps 756 mmHg 78%
    10:00 +31°C° 0 mm 2 mps 756 mmHg 68%
    11:00 +34°C° 0 mm 2 mps 756 mmHg 58%
    12:00 +32°C° 1.5 mm 2 mps 755 mmHg 67%
    13:00 +31°C° 1.5 mm 2 mps 754 mmHg 77%
    14:00 +30°C° 1.5 mm 1 mps 753 mmHg 86%
    15:00 +29°C° 1.5 mm 1 mps 753 mmHg 89%
    16:00 +28°C° 1.5 mm 1 mps 753 mmHg 92%
    17:00 +27°C° 1.5 mm 1 mps 754 mmHg 95%
    18:00 +27°C° 0.8 mm 1 mps 754 mmHg 96%
    19:00 +26°C° 0.8 mm 1 mps 755 mmHg 96%
    20:00 +26°C° 0.8 mm 1 mps 755 mmHg 97%
    21:00 +26°C° 0 mm 1 mps 755 mmHg 97%
    22:00 +26°C° 0 mm 1 mps 755 mmHg 97%
    23:00 +26°C° 0 mm 1 mps 755 mmHg 97%

    14 December, Saturday

    Time Temperature Precipitation Wind Pressure Humidity
    00:00 +25°C° 0.9 mm 1 mps 755 mmHg 98%
    01:00 +25°C° 0.9 mm 1 mps 755 mmHg 98%
    02:00 +23°C° 0.9 mm 0 mps 754 mmHg 99%
    03:00 +25°C° 1.3 mm 1 mps 754 mmHg 98%
    04:00 +25°C° 1.3 mm 1 mps 755 mmHg 98%
    05:00 +25°C° 1.3 mm 1 mps 755 mmHg 98%
    06:00 +25°C° 0.9 mm 1 mps 755 mmHg 97%
    07:00 +26°C° 0.9 mm 1 mps 756 mmHg 97%
    08:00 +26°C° 0.9 mm 1 mps 756 mmHg 96%
    09:00 +27°C° 0.9 mm 1 mps 756 mmHg 93%
    10:00 +28°C° 0.9 mm 2 mps 756 mmHg 90%
    11:00 +29°C° 0.9 mm 2 mps 756 mmHg 86%
    12:00 +29°C° 1.5 mm 2 mps 755 mmHg 88%
    13:00 +28°C° 1.5 mm 2 mps 755 mmHg 90%
    14:00 +28°C° 1.5 mm 1 mps 754 mmHg 92%
    15:00 +27°C° 0.6 mm 1 mps 754 mmHg 93%
    16:00 +27°C° 0.6 mm 1 mps 754 mmHg 93%
    17:00 +27°C° 0.6 mm 1 mps 754 mmHg 94%
    18:00 +26°C° 0 mm 1 mps 755 mmHg 95%
    19:00 +26°C° 0 mm 1 mps 755 mmHg 96%
    20:00 +26°C° 0 mm 1 mps 756 mmHg 97%
    21:00 +25°C° 0 mm 1 mps 756 mmHg 98%
    22:00 +25°C° 0 mm 1 mps 756 mmHg 98%
    23:00 +23°C° 0 mm 0 mps 756 mmHg 99%

    15 December, Sunday

    Time Temperature Precipitation Wind Pressure Humidity
    00:00 +23°C° 0 mm 0 mps 756 mmHg 99%
    01:00 +23°C° 0 mm 0 mps 755 mmHg 99%
    02:00 +23°C° 0 mm 0 mps 755 mmHg 99%
    03:00 +23°C° 0.1 mm 0 mps 755 mmHg 99%
    04:00 +23°C° 0.1 mm 0 mps 755 mmHg 99%
    05:00 +22°C° 0.1 mm 0 mps 755 mmHg 99%
    06:00 +25°C° 1 mm 1 mps 756 mmHg 97%
    07:00 +26°C° 1 mm 1 mps 756 mmHg 95%
    08:00 +27°C° 1 mm 1 mps 757 mmHg 94%
    09:00 +28°C° 1.5 mm 1 mps 757 mmHg 93%
    10:00 +28°C° 1.5 mm 2 mps 757 mmHg 92%
    11:00 +28°C° 1.5 mm 2 mps 756 mmHg 91%
    12:00 +28°C° 0.2 mm 2 mps 756 mmHg 90%
    13:00 +28°C° 0.2 mm 1 mps 755 mmHg 89%
    14:00 +28°C° 0.2 mm 1 mps 755 mmHg 88%
    15:00 +28°C° 0.9 mm 1 mps 755 mmHg 89%
    16:00 +27°C° 0.9 mm 1 mps 755 mmHg 90%
    17:00 +27°C° 0.9 mm 1 mps 755 mmHg 91%
    18:00 +27°C° 0 mm 1 mps 755 mmHg 93%
    19:00 +26°C° 0 mm 1 mps 755 mmHg 94%
    20:00 +25°C° 0 mm 1 mps 756 mmHg 95%
    21:00 +23°C° 0.3 mm 0 mps 756 mmHg 96%
    22:00 +23°C° 0.3 mm 0 mps 756 mmHg 97%
    23:00 +23°C° 0.3 mm 0 mps 756 mmHg 97%

    16 December, Monday

    Time Temperature Precipitation Wind Pressure Humidity
    00:00 +23°C° 1.1 mm 0 mps 756 mmHg 98%
    01:00 +23°C° 1.1 mm 0 mps 755 mmHg 98%
    02:00 +25°C° 1.1 mm 1 mps 754 mmHg 99%
    03:00 +25°C° 0.8 mm 1 mps 755 mmHg 98%
    04:00 +25°C° 0.8 mm 1 mps 755 mmHg 98%
    05:00 +25°C° 0.8 mm 1 mps 755 mmHg 98%
    06:00 +25°C° 0.3 mm 1 mps 755 mmHg 98%
    07:00 +25°C° 0.3 mm 1 mps 756 mmHg 97%
    08:00 +26°C° 0.3 mm 1 mps 757 mmHg 96%
    09:00 +26°C° 0.5 mm 1 mps 757 mmHg 95%
    10:00 +27°C° 0.5 mm 2 mps 757 mmHg 94%
    11:00 +27°C° 0.5 mm 2 mps 757 mmHg 93%
    12:00 +27°C° 0.2 mm 2 mps 756 mmHg 90%
    13:00 +28°C° 0.2 mm 2 mps 755 mmHg 87%
    14:00 +28°C° 0.2 mm 1 mps 755 mmHg 84%
    15:00 +28°C° 0 mm 1 mps 755 mmHg 85%
    16:00 +27°C° 0 mm 1 mps 755 mmHg 86%
    17:00 +27°C° 0 mm 1 mps 754 mmHg 86%
    18:00 +26°C° 0 mm 1 mps 755 mmHg 89%
    19:00 +26°C° 0 mm 1 mps 755 mmHg 91%
    20:00 +25°C° 0 mm 1 mps 756 mmHg 93%
    21:00 +25°C° 0 mm 1 mps 756 mmHg 93%
    22:00 +25°C° 0 mm 1 mps 756 mmHg 94%
    23:00 +25°C° 0 mm 1 mps 756 mmHg 95%
    Show more